Location: Poughquag
(41.6090°N, 73.6820°W)
Time: 03:21:02
(UTC-04:00)

Transit 2A - Pass Details

Date: 03 June 2020
Orbit: 592 x 967 km, 66.7° (Epoch: 06 July)

Event Time Altitude Azimuth Distance (km) Brightness Sun altitude
Rises 12:57:19 0° 199° (SSW) 2,990 9.3 70.8°
Reaches altitude 10° 12:59:31 10° 196° (SSW) 2,130 8.8 70.8°
Maximum altitude 13:04:19 64° 116° (ESE) 820 7.6 70.7°
Drops below altitude 10° 13:09:42 10° 36° (NE) 2,389 8.5 70.5°
Sets 13:12:18 0° 33° (NNE) 3,387 9.1 70.4°
